"Pseudo-MPEC" for P110DoP

Created 2020 May 27 22:07:09 UT using Find_Orb

Click here for an explanation of pseudo-MPECs

 
 Astrometry: 
     P110DoP  C2020 05 20WRjh=HAstrometryHBVi`tLmdFlrM')^KUkXsR)c[,QS.SudC59IF51
     P110DoP  C2020 05 20)#puuCW$\(Y'DlPredacted;u91Dd1x9clickOhereANhj1k:a@8F51
     P110DoP  C2020 05 20xt2!xXU(SLANe\9cui^$WO5#CPC[nvfor/H.dexplanationf@(sF51

Station data:
(F51) Pan-STARRS 1, Haleakala  (N20.707235 W156.255910)  US/Hawaii.
   Observers N. Primak, A. Schultz, S. Watters, J. Thiel, T. Goggia. Measurer
   PS1 Science Consortium. 1.8-m Ritchey-Chrétien + CCD.

Orbital elements:  P110DoP
   Perihelion 2020 Feb 10.519226 +/- 96.1 TT = 12:27:41 (JD 2458890.019226)
Epoch 2020 May 21.0 TT = JDT 2458990.5   Earth MOID: 0.4927   AutoNEOCP
M  29.35925085 +/- 70               (J2000 ecliptic)
n   0.29218774 +/- 0.401            Peri.  276.28031 +/- 100
a   2.24919986 +/- 2.04             Node   269.11066 +/- 22
e   0.4459368 +/- 0.272             Incl.   27.08632 +/- 26
P   3.37                   H 20.2   G  0.15   U 12.1  SR
q 1.24619886 +/- 0.666    Q 3.25220086 +/- 29.5
From 3 observations 2020 May 20 (28.5 min); mean residual 0".09
Residuals in arcseconds: 
200520 F51  .05+  .07-    200520 F51  .11-  .14+    200520 F51  .05+  .07-    

Ephemerides (geocentric):
Date (UTC) HH   RA              Dec         delta   r     elong  mag " sig PA
---- -- -- --  -------------   -----------  ------ ------ -----  --- ---- ---
2020 05 27 22  19 06 27.182   -31 08 30.55  .70095 1.6225 141.6 21.5  49d  25
2020 05 27 23  19 06 22.837   -31 07 23.27  .70091 1.6227 141.7 21.5  49d  25
2020 05 28 00  19 06 18.488   -31 06 15.95  .70086 1.6229 141.7 21.5  49d  25
2020 05 28 01  19 06 14.135   -31 05 08.62  .70082 1.6231 141.8 21.5  49d  25
2020 05 28 02  19 06 09.777   -31 04 01.26  .70078 1.6234 141.9 21.5  49d  25
2020 05 28 03  19 06 05.416   -31 02 53.88  .70074 1.6236 141.9 21.5  49d  25
2020 05 28 04  19 06 01.050   -31 01 46.48  .70069 1.6238 142.0 21.5  49d  26
2020 05 28 05  19 05 56.681   -31 00 39.06  .70065 1.6241 142.0 21.5  49d  26
2020 05 28 06  19 05 52.307   -30 59 31.61  .70061 1.6243 142.1 21.5  49d  26
2020 05 28 07  19 05 47.929   -30 58 24.14  .70057 1.6245 142.1 21.5  49d  26
2020 05 28 08  19 05 43.547   -30 57 16.65  .70053 1.6248 142.2 21.5  49d  26
2020 05 28 09  19 05 39.161   -30 56 09.13  .70049 1.6250 142.3 21.5  50d  26
2020 05 28 10  19 05 34.771   -30 55 01.60  .70045 1.6252 142.3 21.5  50d  26
2020 05 28 11  19 05 30.378   -30 53 54.04  .70041 1.6255 142.4 21.5  50d  26
2020 05 28 12  19 05 25.980   -30 52 46.46  .70038 1.6257 142.4 21.5  50d  26
2020 05 28 13  19 05 21.578   -30 51 38.86  .70034 1.6259 142.5 21.5  50d  26
2020 05 28 14  19 05 17.172   -30 50 31.23  .70030 1.6261 142.5 21.5  50d  26
2020 05 28 15  19 05 12.762   -30 49 23.59  .70026 1.6264 142.6 21.5  50d  26
2020 05 28 16  19 05 08.348   -30 48 15.92  .70022 1.6266 142.6 21.5  50d  26
2020 05 28 17  19 05 03.930   -30 47 08.23  .70019 1.6268 142.7 21.5  50d  26
2020 05 28 18  19 04 59.508   -30 46 00.52  .70015 1.6271 142.8 21.5  51d  26
2020 05 28 19  19 04 55.083   -30 44 52.79  .70011 1.6273 142.8 21.5  51d  26
2020 05 28 20  19 04 50.653   -30 43 45.03  .70008 1.6275 142.9 21.5  51d  26
2020 05 28 21  19 04 46.220   -30 42 37.26  .70004 1.6278 142.9 21.5  51d  26
2020 05 28 22  19 04 41.782   -30 41 29.46  .70001 1.6280 143.0 21.5  51d  26
2020 05 28 23  19 04 37.341   -30 40 21.64  .69997 1.6282 143.0 21.5  51d  26
2020 05 29 00  19 04 32.896   -30 39 13.80  .69994 1.6285 143.1 21.5  51d  26
2020 05 29 01  19 04 28.447   -30 38 05.94  .69990 1.6287 143.1 21.5  51d  26
2020 05 29 02  19 04 23.994   -30 36 58.06  .69987 1.6289 143.2 21.5  51d  26
2020 05 29 03  19 04 19.538   -30 35 50.15  .69984 1.6291 143.3 21.5  51d  26
2020 05 29 04  19 04 15.077   -30 34 42.23  .69980 1.6294 143.3 21.5  51d  26
2020 05 29 05  19 04 10.613   -30 33 34.28  .69977 1.6296 143.4 21.5  51d  26
2020 05 29 06  19 04 06.145   -30 32 26.31  .69974 1.6298 143.4 21.5  51d  26
2020 05 29 07  19 04 01.673   -30 31 18.32  .69971 1.6301 143.5 21.5  51d  26
2020 05 29 08  19 03 57.197   -30 30 10.31  .69967 1.6303 143.5 21.5  52d  26
2020 05 29 09  19 03 52.718   -30 29 02.28  .69964 1.6305 143.6 21.5  52d  26
2020 05 29 10  19 03 48.235   -30 27 54.23  .69961 1.6308 143.7 21.5  52d  26
2020 05 29 11  19 03 43.748   -30 26 46.16  .69958 1.6310 143.7 21.5  52d  26
2020 05 29 12  19 03 39.258   -30 25 38.07  .69955 1.6312 143.8 21.5  52d  26
2020 05 29 13  19 03 34.764   -30 24 29.96  .69952 1.6315 143.8 21.5  52d  26
2020 05 29 14  19 03 30.266   -30 23 21.82  .69949 1.6317 143.9 21.5  52d  26
2020 05 29 15  19 03 25.764   -30 22 13.67  .69946 1.6319 143.9 21.5  52d  26
2020 05 29 16  19 03 21.259   -30 21 05.49  .69943 1.6322 144.0 21.5  52d  26
2020 05 29 17  19 03 16.750   -30 19 57.30  .69941 1.6324 144.1 21.5  53d  26
2020 05 29 18  19 03 12.238   -30 18 49.08  .69938 1.6326 144.1 21.5  53d  26
2020 05 29 19  19 03 07.722   -30 17 40.85  .69935 1.6329 144.2 21.5  53d  26
2020 05 29 20  19 03 03.202   -30 16 32.59  .69932 1.6331 144.2 21.5  53d  26
2020 05 29 21  19 02 58.678   -30 15 24.32  .69929 1.6333 144.3 21.5  53d  26